Location: Campillo
(40.8621°N, 4.2488°W)
Time: 17:02:45
(UTC+00:00)

Cosmos 1777 Rocket - Pass Details

Date: 27 September 2021
Orbit: 759 x 775 km, 74.0° (Epoch: 23 October)

Event Time Altitude Azimuth Distance (km) Brightness Sun altitude
Rises 20:22:46 0° 241° (WSW) 3,228 7.8 -26.3°
Reaches altitude 10° 20:25:51 10° 260° (W) 2,302 7.2 -26.8°
Maximum altitude 20:29:26 18° 303° (WNW) 1,792 6.7 -27.4°
Drops below altitude 10° 20:33:02 10° 347° (NNW) 2,305 6.9 -28.0°
Sets 20:36:08 0° 6° (N) 3,232 7.5 -28.6°
